Temperature
20 21 21 22 22 21 20 19 20 20 20 20 20 19 20 21 20 20 20 20 20 20 20 20 19 19 19 19 18 18 18 17 17 16 16 16 16 16 15 15 15 15 15 15
20 21 21 22 22 21 21 21 20 21 20 20 20 20 20 20 20 19 20 20 20 20 20 20 19 19 19 18 18 18 17 17 17 16 16 16 16 15 15 15 15 15 15 15
19 20 21 21 21 21 21 21 20 21 21 20 19 19 19 20 20 20 20 20 20 20 20 20 19 19 19 18 18 18 17 17 16 16 16 16 15 15 15 15 15 15 14 14
17 20 21 21 20 21 21 20 20 19 19 19 19 20 21 21 21 21 21 21 21 20 20 19 19 19 18 18 18 17 17 17 16 16 16 15 15 15 15 15 14 14 14 14
16 18 19 20 21 20 20 20 20 19 19 19 19 20 20 21 21 22 22 21 21 20 20 19 19 19 18 18 17 17 17 16 16 15 15 15 15 15 14 14 14 14 14 14
16 19 19 20 21 20 20 20 19 19 18 18 19 18 19 21 21 21 21 21 20 20 19 19 19 18 18 17 17 17 16 16 16 15 15 15 15 14 14 14 14 13 13 13
16 17 18 19 19 20 20 20 20 19 19 18 18 19 20 21 21 21 21 20 20 19 19 18 18 18 18 17 17 16 16 16 15 15 15 14 14 14 14 14 13 13 13 13
15 17 18 18 18 18 18 19 19 19 19 19 19 20 20 20 21 21 20 20 19 19 18 18 17 17 17 17 16 16 15 15 15 15 14 14 14 14 13 13 13 13 13 12
15 16 17 18 18 19 19 19 20 20 20 20 19 19 20 20 20 20 20 19 19 19 18 17 17 17 17 17 16 16 15 15 14 14 14 14 13 13 13 13 13 12 12 12
14 16 17 18 19 19 19 19 20 20 20 20 19 19 19 20 20 19 19 19 19 18 18 17 17 17 17 16 16 15 15 14 14 14 14 13 13 13 13 12 12 12 12 12
14 15 17 18 19 19 19 20 20 19 19 19 19 19 19 19 19 19 19 19 18 18 17 17 16 16 16 16 15 15 15 14 14 14 13 13 13 12 12 12 12 12 11 11
15 16 15 17 18 19 19 19 19 19 19 19 19 19 19 19 19 18 18 18 18 17 17 17 16 16 16 15 15 15 14 14 14 13 13 13 13 12 12 12 11 11 11 11
17 17 17 18 18 18 18 18 18 19 19 18 18 18 18 18 18 18 18 17 17 17 17 16 16 16 15 15 15 14 14 14 13 13 13 13 12 12 12 11 11 11 11 10
17 17 17 17 17 18 18 18 18 18 18 18 18 18 18 18 17 17 17 17 17 17 16 16 16 15 15 15 14 14 14 14 13 13 13 12 12 12 12 11 11 11 11 10
17 17 17 17 17 17 17 17 17 17 17 18 18 18 17 17 17 17 17 16 16 16 16 16 15 15 15 14 14 14 14 13 13 13 13 12 12 12 11 11 11 11 11 10
17 17 17 17 17 17 17 17 17 17 17 17 17 17 17 17 16 16 16 16 16 16 16 15 15 15 14 14 14 14 13 13 13 13 12 12 12 12 11 11 11 10 10 10
16 16 16 16 16 16 16 16 16 16 16 16 17 16 16 16 16 16 16 16 15 15 15 15 15 15 14 14 14 13 13 13 13 12 12 12 12 11 11 11 11 10 10 10
16 16 16 16 16 16 16 16 16 16 16 16 16 16 16 15 15 15 15 15 15 15 15 15 14 14 14 14 13 13 13 13 12 12 12 12 11 11 11 11 11 10 10 10
16 16 16 16 16 16 16 16 16 16 16 16 16 15 15 15 15 15 15 15 15 15 14 14 14 14 13 13 13 13 13 12 12 12 12 11 11 11 11 11 10 10 10 10
16 16 16 16 16 15 15 15 15 15 15 15 15 15 15 14 14 14 14 14 14 14 14 14 14 13 13 13 13 13 12 12 12 12 12 11 11 11 11 10 10 10 10 10
15 15 15 15 15 15 15 15 15 15 15 15 15 15 14 14 14 14 14 14 14 14 14 13 13 13 13 13 13 12 12 12 12 12 11 11 11 11 11 10 10 10 10 9
15 15 15 15 15 15 15 15 15 15 15 15 14 14 14 14 14 14 14 14 14 14 13 13 13 13 13 12 12 12 12 12 12 11 11 11 11 10 10 10 10 9 9 9
14 14 14 14 14 14 14 14 14 14 14 14 14 14 14 14 14 14 14 13 13 13 13 13 13 12 12 12 12 12 12 11 11 11 11 11 10 10 10 10 9 9 9 9
14 14 14 14 14 14 14 14 14 14 14 14 14 14 14 14 13 13 13 13 13 13 13 13 12 12 12 12 12 12 11 11 11 11 10 10 10 10 10 9 9 9 9 8
13 13 13 14 14 14 14 14 14 14 14 14 14 13 13 13 13 13 13 13 13 13 13 12 12 12 12 12 12 11 11 11 11 10 10 10 10 9 9 9 9 9 8 8
13 13 13 13 13 13 13 13 13 13 13 13 13 13 13 13 13 13 13 13 12 12 12 12 12 12 12 11 11 11 11 11 10 10 10 10 9 9 9 9 9 8 8 8
13 13 13 13 13 13 13 13 13 13 13 13 13 13 13 13 13 13 12 12 12 12 12 12 11 11 11 11 11 11 11 10 10 10 10 9 9 9 9 9 9 8 8 8
Wind_Speed
4 3 3 3 3 5 5 7 7 7 7 9 7 6 5 5 5 6 6 6 7 6 5 5 5 5 4 4 4 4 4 4 3 2 2 2 2 1 2 2 2 2 2 3
2 2 2 2 3 4 4 4 5 5 7 7 3 3 3 5 6 7 8 8 8 7 6 6 6 6 5 4 4 5 5 4 3 3 2 2 1 2 2 2 2 3 3 3
2 3 2 3 4 4 3 4 6 7 7 2 1 4 6 7 8 9 9 9 9 8 7 7 6 7 7 5 5 5 4 3 3 3 2 1 1 2 2 2 2 3 3 3
1 2 3 6 3 2 3 2 3 3 3 2 4 3 3 4 7 7 7 8 8 7 7 6 6 6 6 6 6 5 4 3 3 3 2 2 2 2 1 2 2 2 3 3
3 3 4 6 2 2 2 2 2 3 2 0 1 3 2 1 4 6 7 7 7 7 7 6 6 7 7 6 6 5 4 3 3 3 3 2 2 1 1 1 2 2 2 3
4 3 5 6 4 1 3 3 2 2 2 1 4 2 3 1 2 3 5 6 7 7 7 7 6 7 8 7 6 5 4 4 3 3 3 3 2 1 1 1 1 2 3 3
4 3 6 6 5 1 3 5 3 3 3 3 3 4 3 2 3 5 5 6 7 8 7 6 7 8 8 6 5 4 4 4 3 3 3 3 2 2 2 2 2 3 3 3
4 3 6 4 1 3 5 3 2 3 2 2 2 1 1 3 4 5 6 7 8 8 6 5 7 8 7 5 4 4 5 4 3 2 2 3 3 2 2 2 2 2 2 3
6 6 5 3 3 4 3 2 3 2 2 3 2 2 1 2 3 5 6 7 7 8 7 5 5 7 8 5 5 5 5 4 3 3 2 2 3 2 2 2 1 1 1 2
2 5 5 5 4 3 2 3 3 2 2 3 3 3 2 2 3 4 5 6 6 8 7 5 4 5 6 6 6 6 5 4 3 3 2 2 2 2 2 1 1 0 1 1
3 5 5 4 3 3 3 3 3 2 1 2 4 3 3 3 4 5 4 4 6 8 7 6 5 5 5 6 7 6 5 4 3 3 2 2 1 1 1 1 2 2 1 1
5 5 3 5 4 2 2 2 2 2 3 2 2 4 3 3 3 5 5 4 5 5 6 5 5 5 5 5 7 7 5 3 3 2 2 2 2 1 1 0 1 1 1 1
6 4 4 4 4 2 1 1 1 2 2 1 1 3 4 4 4 5 5 6 6 5 5 5 5 4 4 5 6 6 5 4 3 3 3 2 2 1 0 2 3 2 2 2
5 2 2 3 3 2 0 1 2 2 1 1 2 3 3 4 4 4 4 5 6 6 5 5 5 3 3 5 6 6 5 5 4 3 3 2 2 2 2 1 1 2 3 3
5 4 4 3 1 0 1 3 3 2 1 2 2 3 4 4 5 4 3 4 5 5 4 5 4 3 3 5 6 6 5 4 3 3 2 2 2 1 1 1 1 1 2 3
2 1 1 2 2 1 1 3 3 2 1 1 1 2 3 4 5 5 4 5 6 6 5 5 4 3 4 5 6 5 4 5 5 3 2 2 2 2 1 1 1 1 2 2
1 2 2 2 2 2 2 3 3 3 3 2 2 2 3 4 4 3 3 3 4 5 5 5 5 4 4 5 6 4 4 4 5 3 2 2 2 2 2 2 2 2 2 2
6 6 6 5 4 3 2 2 3 3 3 3 3 3 4 5 5 4 3 3 3 2 2 4 4 4 4 5 5 4 4 4 3 3 3 2 2 2 2 2 2 3 2 2
4 4 4 4 4 4 3 3 3 3 3 4 4 4 4 4 4 4 4 4 4 3 3 3 5 5 4 5 5 4 4 4 3 3 2 2 2 2 2 3 3 3 2 2
1 2 2 2 2 3 3 2 2 2 3 4 4 4 3 3 4 4 4 3 4 4 4 4 4 4 4 5 5 4 4 4 4 3 3 3 2 2 2 2 2 2 2 2
0 1 2 2 1 1 2 2 3 2 2 3 5 5 4 4 4 5 4 3 3 3 3 4 4 3 4 4 5 4 4 4 4 3 3 3 3 3 2 2 2 2 2 3
1 1 1 1 1 1 1 2 2 2 2 2 3 3 4 4 4 3 3 4 4 4 3 3 3 4 4 4 4 4 4 4 3 3 3 3 3 2 2 2 2 2 2 2
0 1 1 1 1 2 1 1 2 3 3 3 3 4 4 4 4 4 3 2 3 4 3 3 4 5 5 4 3 4 4 4 3 3 3 3 3 3 3 3 2 2 2 2
1 1 0 1 2 2 1 1 1 1 2 2 2 3 4 3 2 3 3 4 4 4 3 3 5 5 5 3 3 3 3 3 3 3 3 2 2 2 2 2 2 2 2 2
0 1 1 2 2 2 2 1 1 0 0 0 1 2 3 3 4 3 3 4 5 4 3 3 4 4 4 3 4 3 3 3 3 3 3 3 2 2 2 2 2 2 2 2
1 1 1 2 2 2 1 2 1 1 1 1 0 1 1 1 2 3 3 3 4 4 3 2 2 3 3 3 3 3 3 3 3 3 3 3 3 3 2 2 2 2 2 2
1 1 1 1 1 0 1 1 1 1 1 2 1 1 1 1 2 3 3 3 3 2 2 2 2 2 2 2 2 2 2 2 3 3 3 3 3 3 3 3 2 2 2 2
Wind_Direction
233 243 209 211 213 185 186 186 194 232 236 258 249 225 205 180 161 154 158 164 167 168 168 159 153 152 154 151 138 133 131 130 137 125 110 94 76 59 52 56 50 34 25 11
297 274 229 250 245 202 204 197 220 241 260 260 244 168 163 172 170 175 184 185 177 172 167 167 166 163 157 147 136 130 132 139 130 111 99 93 83 69 63 52 46 46 32 24
244 300 41 283 252 212 204 211 195 220 243 255 183 192 195 190 189 193 192 188 181 179 177 176 172 164 159 155 140 132 135 134 126 125 124 114 100 77 64 56 54 49 32 31
150 85 212 248 254 201 187 243 225 239 268 226 219 222 213 189 188 199 193 185 182 175 170 169 161 156 151 145 142 140 141 144 144 143 137 105 86 74 55 59 59 53 36 26
130 166 270 289 267 162 183 272 251 224 282 316 100 63 3 221 189 198 192 181 171 163 157 153 152 151 143 141 143 144 152 155 153 150 139 121 107 85 72 67 51 45 44 34
134 157 222 248 277 245 136 274 267 194 191 145 99 109 256 259 163 170 160 150 144 139 133 138 141 140 141 146 146 155 162 154 143 143 141 136 135 116 87 96 78 61 47 34
159 201 255 268 292 74 164 241 274 204 199 171 184 212 221 171 151 154 144 135 133 134 138 144 142 138 139 143 159 168 149 133 127 134 141 131 119 103 98 90 72 57 39 15
152 183 253 305 71 162 225 275 262 232 209 187 195 187 155 153 152 143 133 131 135 136 137 139 143 141 142 156 163 141 133 129 128 126 127 122 117 97 83 85 75 52 26 1
190 211 244 269 238 264 242 258 269 242 234 164 152 161 156 157 152 145 140 141 139 138 133 131 144 148 153 166 146 136 133 135 132 119 114 118 126 117 91 87 89 54 22 341
255 274 280 286 287 297 281 273 288 255 198 158 151 158 154 148 141 134 132 139 139 137 140 143 149 153 155 149 141 139 143 145 138 132 117 98 117 134 135 134 122 72 333 316
263 287 312 319 312 320 346 359 13 16 31 155 150 155 159 156 152 148 140 140 145 149 154 157 152 149 146 144 140 138 139 137 134 138 138 124 121 158 171 188 182 181 229 253
227 240 228 272 289 310 351 353 25 63 39 41 146 161 152 153 155 147 144 139 141 147 152 153 149 147 150 147 141 138 138 145 153 152 148 147 145 92 39 77 7 185 193 200
234 248 238 269 294 312 319 342 43 88 124 113 124 147 143 144 146 145 147 149 154 159 157 148 142 149 157 150 147 148 156 163 164 162 164 169 171 171 326 1 17 15 347 324
245 232 265 265 268 278 160 86 70 68 77 110 114 114 114 124 132 147 165 166 158 151 149 146 143 156 162 152 151 156 162 168 170 176 177 183 193 191 182 193 324 342 331 318
265 233 229 243 240 293 105 109 98 83 77 80 106 123 129 144 156 163 161 148 140 138 147 148 150 172 164 155 155 161 165 169 171 172 176 184 188 180 182 196 229 291 323 334
267 259 179 170 183 195 147 145 147 167 164 142 136 141 142 147 148 146 148 147 149 160 170 163 173 186 169 161 157 159 173 173 167 165 167 172 172 175 188 204 235 269 286 295
195 229 218 223 224 233 219 196 182 187 186 188 181 148 126 126 131 142 160 163 164 174 179 177 186 174 166 168 164 165 169 174 168 165 179 188 187 196 207 213 230 252 265 267
224 227 223 215 214 225 233 203 183 183 195 197 160 143 143 154 165 174 172 141 129 147 196 192 180 165 170 174 169 169 171 172 178 186 188 190 199 209 217 225 241 255 273 288
232 226 216 201 197 196 200 201 199 196 188 167 160 167 176 180 174 174 160 143 150 186 226 210 181 168 175 183 168 165 172 174 178 183 183 184 195 215 225 229 238 246 251 262
232 192 178 175 179 181 186 199 194 187 182 171 165 162 172 182 174 170 164 179 202 204 195 186 175 169 179 181 171 171 175 176 176 177 176 182 199 219 231 237 243 247 253 257
176 156 148 150 168 180 181 172 159 173 186 174 173 179 185 183 171 162 163 200 236 192 173 173 174 179 182 176 168 164 169 177 182 185 192 201 209 218 232 245 250 251 257 261
89 131 141 145 131 145 187 159 157 170 173 172 174 170 165 169 169 172 193 205 204 183 171 176 181 188 181 165 161 166 175 180 182 183 192 204 213 224 236 244 254 259 260 261
36 128 138 154 173 171 128 127 162 179 187 191 191 186 181 185 182 180 210 217 181 179 181 195 195 187 177 168 171 176 179 180 182 189 198 205 207 213 223 233 239 244 250 259
22 40 75 137 126 118 152 219 223 208 195 196 203 195 177 175 200 207 195 186 179 179 188 195 190 187 175 173 174 179 184 187 191 197 205 207 206 207 213 218 227 243 247 255
77 81 93 127 148 189 211 190 129 86 117 183 226 200 184 182 189 196 182 182 182 175 174 179 175 171 172 176 178 184 192 199 198 196 201 207 211 209 213 213 212 223 233 243
161 161 180 184 192 203 188 156 158 180 169 159 269 229 183 162 166 169 170 173 173 168 163 165 172 174 176 180 189 195 200 200 201 200 203 207 209 210 213 216 222 228 235 241
67 68 57 36 27 67 170 163 166 177 168 170 200 229 185 157 153 158 157 161 159 159 161 166 173 178 179 186 193 198 197 196 198 204 209 210 211 212 212 213 217 220 220 225
Height
1481 1478 1477 1477 1478 1480 1483 1487 1493 1486 1483 1473 1468 1467 1467 1468 1470 1472 1474 1476 1477 1479 1482 1484 1486 1489 1490 1492 1493 1495 1496 1496 1497 1497 1498 1498 1498 1497 1496 1496 1495 1495 1494 1493
1481 1476 1475 1476 1474 1474 1476 1477 1479 1478 1476 1466 1465 1465 1466 1467 1469 1470 1472 1474 1476 1478 1481 1483 1485 1488 1490 1491 1493 1494 1495 1495 1496 1496 1497 1497 1497 1496 1495 1495 1494 1493 1493 1492
1488 1480 1476 1483 1474 1472 1472 1470 1472 1476 1470 1464 1464 1464 1464 1465 1467 1468 1470 1472 1474 1477 1479 1482 1484 1486 1488 1491 1492 1493 1494 1495 1495 1496 1496 1496 1496 1495 1495 1494 1493 1492 1492 1491
1491 1486 1493 1479 1466 1466 1468 1467 1466 1466 1464 1463 1462 1462 1462 1464 1465 1466 1468 1471 1473 1476 1478 1481 1483 1485 1488 1489 1491 1492 1493 1494 1495 1495 1495 1495 1495 1495 1494 1493 1492 1491 1491 1490
1495 1494 1488 1474 1465 1465 1468 1469 1464 1464 1463 1462 1461 1462 1463 1463 1463 1465 1467 1469 1472 1475 1477 1480 1482 1484 1486 1488 1489 1490 1492 1493 1494 1494 1494 1494 1494 1494 1493 1493 1492 1491 1490 1489
1493 1491 1492 1475 1462 1461 1466 1471 1463 1462 1462 1462 1462 1467 1464 1462 1463 1465 1467 1469 1471 1474 1476 1478 1480 1483 1484 1486 1488 1489 1491 1492 1493 1493 1493 1493 1493 1493 1492 1492 1491 1490 1489 1488
1490 1489 1482 1467 1462 1461 1475 1472 1461 1460 1460 1461 1461 1462 1461 1461 1463 1465 1467 1468 1470 1472 1475 1477 1479 1481 1483 1485 1487 1488 1490 1491 1492 1492 1492 1492 1492 1492 1491 1491 1490 1489 1488 1487
1489 1489 1484 1464 1462 1466 1466 1460 1459 1459 1459 1459 1459 1459 1460 1461 1462 1464 1466 1468 1470 1471 1474 1476 1478 1480 1482 1484 1486 1487 1489 1490 1491 1491 1492 1492 1492 1491 1491 1490 1489 1488 1487 1486
1478 1477 1467 1463 1462 1461 1460 1459 1458 1457 1457 1458 1458 1459 1459 1460 1462 1463 1465 1467 1469 1471 1473 1476 1478 1480 1481 1483 1484 1486 1488 1489 1490 1490 1491 1491 1491 1490 1490 1489 1488 1487 1487 1486
1472 1466 1462 1461 1460 1459 1459 1458 1457 1457 1457 1457 1457 1458 1460 1461 1462 1463 1465 1467 1469 1470 1472 1475 1477 1479 1480 1482 1483 1485 1487 1488 1489 1489 1490 1490 1490 1489 1489 1488 1487 1486 1485 1485
1470 1464 1461 1459 1459 1458 1457 1457 1456 1457 1457 1457 1457 1458 1459 1460 1462 1463 1465 1467 1468 1470 1472 1474 1476 1478 1480 1481 1482 1484 1485 1487 1488 1488 1488 1489 1489 1488 1488 1487 1486 1486 1485 1484
1467 1462 1461 1459 1457 1457 1457 1456 1456 1456 1456 1457 1458 1458 1459 1461 1462 1463 1465 1467 1469 1471 1472 1474 1475 1477 1479 1480 1481 1483 1484 1486 1487 1487 1487 1488 1488 1487 1487 1486 1486 1485 1484 1483
1459 1458 1458 1457 1456 1456 1456 1456 1456 1456 1456 1457 1458 1459 1459 1460 1462 1463 1465 1466 1468 1471 1473 1474 1475 1476 1478 1479 1481 1482 1484 1485 1486 1486 1486 1486 1486 1486 1485 1485 1485 1484 1483 1482
1456 1456 1455 1455 1455 1455 1455 1455 1455 1456 1457 1457 1457 1458 1459 1460 1462 1463 1465 1466 1469 1471 1473 1474 1475 1476 1478 1479 1480 1482 1483 1484 1485 1485 1485 1485 1485 1484 1484 1483 1483 1482 1482 1481
1453 1453 1453 1453 1453 1453 1453 1453 1454 1455 1456 1456 1457 1457 1458 1460 1461 1463 1465 1467 1468 1470 1472 1473 1474 1475 1477 1478 1479 1480 1482 1482 1483 1483 1484 1484 1484 1483 1483 1482 1481 1480 1480 1479
1451 1451 1451 1451 1451 1452 1452 1452 1452 1453 1454 1455 1456 1457 1458 1460 1461 1462 1464 1466 1467 1468 1470 1472 1473 1474 1475 1476 1477 1478 1480 1481 1481 1482 1482 1482 1482 1482 1481 1481 1480 1479 1478 1478
1449 1448 1448 1449 1449 1450 1450 1451 1451 1452 1453 1455 1455 1456 1457 1459 1460 1462 1463 1464 1466 1467 1469 1470 1471 1473 1474 1475 1476 1477 1478 1479 1480 1480 1480 1480 1480 1480 1480 1479 1479 1478 1477 1477
1446 1446 1446 1447 1448 1448 1449 1449 1450 1451 1452 1453 1454 1455 1456 1458 1459 1460 1462 1463 1465 1466 1467 1468 1470 1471 1472 1474 1474 1475 1476 1477 1478 1478 1478 1479 1478 1478 1478 1478 1477 1477 1476 1475
1442 1443 1444 1445 1446 1446 1447 1447 1448 1449 1451 1452 1453 1454 1456 1457 1458 1460 1461 1461 1463 1464 1466 1467 1468 1469 1470 1471 1472 1473 1474 1475 1476 1476 1476 1477 1477 1477 1476 1476 1475 1474 1474 1473
1440 1441 1442 1443 1444 1445 1445 1446 1447 1448 1449 1450 1451 1453 1454 1456 1457 1459 1460 1461 1462 1463 1464 1465 1466 1467 1468 1469 1470 1471 1472 1473 1474 1474 1474 1474 1475 1475 1474 1474 1473 1472 1471 1470
1439 1439 1440 1441 1442 1443 1444 1446 1446 1447 1448 1449 1450 1451 1453 1454 1456 1457 1458 1459 1460 1462 1462 1463 1464 1465 1466 1467 1468 1469 1470 1471 1471 1472 1472 1472 1472 1472 1472 1471 1471 1470 1469 1468
1438 1439 1440 1441 1441 1442 1444 1445 1445 1446 1447 1448 1449 1450 1451 1453 1454 1455 1457 1458 1459 1460 1460 1461 1462 1463 1464 1465 1466 1467 1468 1469 1469 1469 1470 1470 1469 1469 1469 1469 1468 1467 1466 1465
1437 1438 1439 1440 1441 1442 1443 1444 1445 1446 1446 1447 1448 1448 1450 1451 1452 1453 1454 1456 1457 1458 1459 1460 1460 1462 1463 1463 1464 1465 1466 1466 1467 1467 1467 1467 1466 1466 1466 1465 1465 1464 1463 1462
1437 1437 1438 1439 1440 1440 1441 1442 1443 1444 1445 1445 1446 1447 1448 1449 1451 1452 1453 1454 1455 1456 1457 1458 1459 1460 1461 1461 1462 1462 1463 1464 1464 1464 1464 1464 1463 1463 1463 1462 1462 1461 1460 1459
1437 1437 1437 1438 1438 1439 1440 1441 1442 1442 1443 1443 1444 1446 1447 1448 1449 1450 1451 1452 1453 1454 1455 1456 1457 1458 1458 1459 1460 1460 1461 1461 1461 1462 1462 1461 1461 1460 1460 1459 1459 1458 1457 1456
1436 1436 1436 1437 1438 1438 1438 1439 1440 1440 1441 1441 1443 1444 1446 1447 1448 1449 1449 1450 1451 1452 1452 1454 1455 1456 1456 1457 1457 1458 1458 1458 1459 1459 1459 1458 1458 1458 1457 1456 1456 1455 1455 1453
1436 1436 1436 1436 1437 1437 1437 1438 1438 1439 1439 1440 1441 1443 1444 1445 1446 1447 1447 1448 1449 1450 1451 1452 1453 1454 1454 1455 1455 1455 1456 1456 1456 1456 1456 1455 1455 1455 1454 1453 1453 1452 1451 1450